Location: Street
(51.1247°N, 2.7429°W)
Time: 06:46:16
(UTC+00:00)

SR - Pass Details

Date: 02 December 2020
Orbit: 575 x 880 km, 66.7° (Epoch: 25 January)

Event Time Altitude Azimuth Distance (km) Brightness Sun altitude
Rises 02:28:06 0° 320° (NW) 3,168 - -49.2°
Reaches altitude 10° 02:30:24 10° 317° (NW) 2,288 - -48.9°
Maximum altitude 02:35:37 64° 238° (WSW) 889 - -48.2°
Drops below altitude 10° 02:41:13 10° 158° (SSE) 2,456 - -47.4°
Sets 02:43:46 0° 155° (SSE) 3,417 - -47.1°
